Change the Weather History Date:

Wednesday, November 28, 2012

  Actual Average Record
Temperature  
Mean Temperature 34 °F 36 °F  
Max Temperature 37 °F 42 °F 72 °F (1990)
Min Temperature 30 °F 30 °F 11 °F (1955)
Degree Days  
Heating Degree Days 31 29  
Month to date heating degree days 701 670  
Since 1 July heating degree days 1218 1275  
Cooling Degree Days 0 0  
Month to date cooling degree days 0 0  
Year to date cooling degree days 875 544  
Moisture  
Dew Point 23 °F    
Average Humidity 62    
Maximum Humidity 72    
Minimum Humidity 51    
Precipitation  
Precipitation 0.02 in 0.14 in 0.96 in (1968)
Month to date precipitation 1.00 3.75  
Year to date precipitation 29.11 36.33  
Snow  
Snow 0.20 in 0.40 in 8.20 in (1965)
Month to date snowfall 1.8 7.0  
Since 1 July snowfall 1.8 7.9  
Since 1 September snowfall 1.8 7.9  
Snow Depth 0.00 in    
Sea Level Pressure  
Sea Level Pressure 30.21 in    
Wind  
Wind Speed 11 mph (SW)    
Max Wind Speed 22 mph    
Max Gust Speed 29 mph    
Visibility 8 miles    
Events Snow    
T = Trace of Precipitation, MM = Missing Value Source: NWS Daily Summary

Daily Weather History Graph

Daily Weather History Graph

Search for Another Location

Airport or City:

Trip Planner

Search our weather history database for the weather conditions in past years. The results will help you decide how hot, cold, wet, or windy it might be!

Date:

Astronomy

Nov. 28, 2012 Rise Set
Actual Time 7:23 AM EST 4:42 PM EST
Civil Twilight 6:51 AM EST 5:14 PM EST
Nautical Twilight 6:16 AM EST 5:49 PM EST
Astronomical Twilight 5:42 AM EST 6:23 PM EST
Moon 4:55 PM EST (11/28) 7:19 AM EST (11/28)
Length of Visible Light 10h 22m
Length of Day
9h 19m
Full, 100% of the Moon is Illuminated
Nov 28
Full
Dec 6
Last Quarter
Dec 13
New
Dec 20
First Quarter
Dec 28
Full

Hourly Weather History & Observations

Time (EST) Temp. Windchill Dew Point Humidity Pressure Visibility Wind Dir Wind Speed Gust Speed Precip Events Conditions
12:54 AM 30.9 °F 26.2 °F 21.0 °F 67% 30.24 in 10.0 mi South 4.6 mph - N/A   Mostly Cloudy
1:54 AM 32.0 °F - 21.0 °F 64% 30.24 in 10.0 mi Calm Calm - N/A   Overcast
2:54 AM 32.0 °F - 21.0 °F 64% 30.23 in 10.0 mi Calm Calm - N/A   Overcast
3:54 AM 32.0 °F 26.4 °F 23.0 °F 69% 30.21 in 10.0 mi South 5.8 mph - N/A   Overcast
4:54 AM 33.1 °F 22.6 °F 21.0 °F 61% 30.21 in 10.0 mi SSW 16.1 mph 23.0 mph 0.00 in Snow Light Snow
5:45 AM 32.0 °F 23.0 °F 21.2 °F 64% 30.17 in 10.0 mi SSW 11.5 mph - 0.00 in Snow Light Snow
5:54 AM 32.0 °F 22.5 °F 21.0 °F 64% 30.20 in 10.0 mi SSW 12.7 mph - 0.00 in Snow Light Snow
6:54 AM 32.0 °F 23.0 °F 21.0 °F 64% 30.20 in 9.0 mi SW 11.5 mph - 0.00 in Snow Light Snow
7:52 AM 32.0 °F 28.7 °F 24.8 °F 75% 30.18 in 9.0 mi WSW 3.5 mph - 0.00 in Snow Light Snow
7:54 AM 32.0 °F 28.7 °F 24.1 °F 73% 30.21 in 9.0 mi WSW 3.5 mph - 0.00 in Snow Light Snow
8:10 AM 32.0 °F 24.8 °F 24.8 °F 75% 30.19 in 7.0 mi West 8.1 mph - 0.00 in Snow Light Snow
8:37 AM 32.0 °F 26.4 °F 24.8 °F 75% 30.19 in 2.5 mi WSW 5.8 mph - 0.00 in Snow Light Snow
8:45 AM 32.0 °F 25.6 °F 24.8 °F 75% 30.19 in 1.5 mi WSW 6.9 mph - 0.00 in Snow Light Snow
8:54 AM 32.0 °F 24.2 °F 24.1 °F 73% 30.22 in 1.8 mi West 9.2 mph - 0.01 in Snow Light Snow
9:00 AM 30.2 °F 23.4 °F 24.8 °F 80% 30.19 in 2.0 mi WSW 6.9 mph - 0.00 in Snow Light Snow
9:08 AM 30.2 °F 23.4 °F 24.8 °F 80% 30.19 in 1.5 mi SW 6.9 mph - 0.00 in Snow Light Snow
9:24 AM 30.2 °F 21.3 °F 24.8 °F 80% 30.18 in 3.0 mi SSW 10.4 mph - 0.00 in Snow Light Snow
9:54 AM 30.9 °F 22.8 °F 28.0 °F 89% 30.21 in 2.0 mi South 9.2 mph - 0.00 in Snow Light Snow
10:05 AM 30.2 °F 21.3 °F 28.4 °F 93% 30.18 in 2.5 mi SSW 10.4 mph - N/A Snow Light Snow
10:11 AM 30.2 °F 21.9 °F 28.4 °F 93% 30.18 in 3.0 mi SSW 9.2 mph - 0.00 in Snow Light Snow
10:54 AM 30.9 °F 22.8 °F 28.0 °F 89% 30.21 in 4.0 mi SW 9.2 mph - 0.01 in Snow Light Snow
11:20 AM 32.0 °F 23.6 °F 28.4 °F 87% 30.17 in 4.0 mi SW 10.4 mph - 0.00 in Snow Light Snow
11:54 AM 36.0 °F 26.3 °F 24.1 °F 62% 30.19 in 10.0 mi West 16.1 mph 23.0 mph 0.00 in   Overcast
12:54 PM 35.1 °F 25.5 °F 23.0 °F 61% 30.19 in 10.0 mi West 15.0 mph 25.3 mph N/A   Mostly Cloudy
1:54 PM 36.0 °F 25.6 °F 24.1 °F 62% 30.18 in 10.0 mi WSW 18.4 mph 26.5 mph N/A   Mostly Cloudy
2:54 PM 36.0 °F 28.5 °F 24.1 °F 62% 30.19 in 10.0 mi WSW 10.4 mph 23.0 mph N/A   Mostly Cloudy
3:54 PM 35.1 °F 25.2 °F 23.0 °F 61% 30.21 in 10.0 mi WSW 16.1 mph 28.8 mph N/A   Mostly Cloudy
4:54 PM 34.0 °F 24.6 °F 23.0 °F 64% 30.22 in 10.0 mi WSW 13.8 mph - N/A   Scattered Clouds
5:54 PM 34.0 °F 24.2 °F 21.0 °F 59% 30.24 in 10.0 mi WSW 15.0 mph 23.0 mph N/A   Scattered Clouds
6:54 PM 35.1 °F 25.5 °F 19.9 °F 54% 30.25 in 10.0 mi West 15.0 mph 21.9 mph N/A   Mostly Cloudy
7:54 PM 33.1 °F 23.4 °F 19.9 °F 59% 30.26 in 10.0 mi West 13.8 mph - N/A   Scattered Clouds
8:54 PM 33.1 °F 23.9 °F 19.0 °F 56% 30.27 in 10.0 mi West 12.7 mph - N/A   Scattered Clouds
9:54 PM 33.1 °F 24.4 °F 17.1 °F 52% 30.27 in 10.0 mi West 11.5 mph - N/A   Partly Cloudy
10:54 PM 33.1 °F 24.4 °F 18.0 °F 54% 30.26 in 10.0 mi West 11.5 mph - N/A   Scattered Clouds
11:54 PM 34.0 °F 25.0 °F 19.0 °F 54% 30.27 in 10.0 mi West 12.7 mph - N/A   Mostly Cloudy